Location: Boiro
(42.6475°N, 8.8834°W)
Time: 01:40:11
(UTC+01:00)

S-56A Canister/Altair - Pass Details

Date: 01 December 2021
Orbit: 633 x 2499 km, 38.9° (Epoch: 18 January)

Event Time Altitude Azimuth Distance (km) Brightness Sun altitude
Exits shadow 08:00:06 - 262° (W) 2,435 9.6 -8.4°
Reaches altitude 10° 08:01:16 10° 252° (WSW) 2,087 9.3 -8.2°
Maximum altitude 08:04:14 17° 212° (SSW) 1,608 9.1 -7.7°
Drops below altitude 10° 08:07:06 10° 170° (S) 2,008 10.2 -7.2°
Sets 08:10:09 0° 150° (SSE) 2,981 11.6 -6.7°
